Tracking 22879 objects as of 22-Apr-2021
HD Live streaming from Space Station
objects crossing your sky now

SL-8 DEB

Track SL-8 DEB now!
10-day predictions


NORAD ID: 21157
Int'l Code: 1991-009U
Perigee: 1,443.3 km
Apogee: 1,720.4 km
Inclination: 74.0 °
Period: 117.6 minutes
Semi major axis: 7952 km
RCS: 0.2621 m2 (medium)
Launch date: February 12, 1991
Source: Commonwealth of Independent States (former USSR) (CIS)
Launch site: PLESETSK MISSILE AND SPACE COMPLEX (PKMTR)

Note: This is SATELLITE DEBRIS
aabbcc
Your satellite tracking list
Your tracking list is empty




NASA's NSSDC Master Catalog

Two Line Element Set (TLE):
1 21157U 91009U   21111.68583083 -.00000016  00000-0 -11959-4 0  9990
2 21157  73.9519 201.8232 0174158  44.5587 105.7141 12.24105294346393
Source of the keplerian elements: AFSPC